Location: Sungai Apap
(2.6167°N, 113.3833°E)
Time: 21:43:41
(UTC+00:00)

Cosmos 1892 Rocket - Pass Details

Date: 09 August 2024
Orbit: 602 x 629 km, 82.5° (Epoch: 12 September)

Event Time Altitude Azimuth Distance (km) Brightness Sun altitude
Rises 11:23:17 0° 171° (S) 2,910 6.8 -11.6°
Reaches altitude 10° 11:25:38 10° 163° (SSE) 1,998 5.8 -12.2°
Maximum altitude 11:29:47 40° 94° (E) 921 4.0 -13.2°
Drops below altitude 10° 11:33:53 10° 24° (NNE) 1,977 6.1 -14.2°
Sets 11:36:11 0° 17° (NNE) 2,875 7.0 -14.7°
